Weather History for Jordan, MT

Change the Weather History Date:

Tuesday, March 5, 2013

  Actual Average Record
Temperature  
Mean Temperature 7 °F 29 °F  
Max Temperature 23 °F 41 °F 77 °F (1987)
Min Temperature -9 °F 16 °F -33 °F (1945)
Degree Days  
Heating Degree Days 58 36  
Month to date heating degree days 176 185  
Since 1 July heating degree days 5634 6303  
Cooling Degree Days 0 0  
Month to date cooling degree days 0 0  
Year to date cooling degree days 0 0  
Moisture  
Dew Point 5 °F    
Average Humidity 82    
Maximum Humidity 95    
Minimum Humidity 68    
Precipitation  
Precipitation 0.00 in 0.02 in 0.26 in (1944)
Month to date precipitation 0.26 0.06  
Year to date precipitation 0.66 0.54  
Snow  
Snow 0.00 in - - ()
Month to date snowfall 0.0  
Since 1 July snowfall 0.0  
Snow Depth 0.00 in    
Sea Level Pressure  
Sea Level Pressure 30.43 in    
Wind  
Wind Speed 6 mph (East)    
Max Wind Speed 14 mph    
Max Gust Speed 16 mph    
T = Trace of Precipitation, MM = Missing Value Source: NWS Daily Summary

Daily Weather History Graph

Daily Weather History Graph

Search for Another Location

Airport:

Trip Planner

Search our weather history database for the weather conditions in past years. The results will help you decide how hot, cold, wet, or windy it might be!

Date:

Astronomy

Mar. 05, 2013 Rise Set
Actual Time 6:39 AM MST 5:59 PM MST
Civil Twilight 6:09 AM MST 6:29 PM MST
Nautical Twilight 5:33 AM MST 7:05 PM MST
Astronomical Twilight 4:58 AM MST 7:41 PM MST
Moon 2:12 AM MST (3/5) 11:23 AM MST (3/5)
Length of Visible Light 12h 20m
Length of Day
11h 19m
Last Quarter, 40% of the Moon is Illuminated
Mar 5
Last Quarter
Mar 11
New
Mar 19
First Quarter
Mar 27
Full
Apr 2
Last Quarter

Hourly Weather History & Observations

Time (MST) Temp. Windchill Dew Point Humidity Pressure Visibility Wind Dir Wind Speed Gust Speed Precip Events Conditions
12:48 AM -0.0 °F - -4.0 °F 83% 30.52 in - Calm Calm - N/A   Unknown
1:48 AM 1.9 °F - -0.9 °F 88% 30.53 in - Calm Calm - N/A   Unknown
2:48 AM -4.0 °F - -9.0 °F 79% 30.53 in - Calm Calm - N/A   Unknown
3:48 AM -8.0 °F - -11.0 °F 86% 30.53 in - Calm Calm - N/A   Unknown
4:48 AM -6.0 °F -18.6 °F -11.0 °F 79% 30.53 in - WNW 5.8 mph - N/A   Unknown
5:48 AM -7.1 °F - -9.9 °F 87% 30.55 in - Calm Calm - N/A   Unknown
6:48 AM -6.0 °F - -9.9 °F 83% 30.54 in - Calm Calm - N/A   Unknown
7:48 AM -0.9 °F - -4.0 °F 87% 30.54 in - Calm Calm - N/A   Unknown
8:48 AM 3.9 °F -6.9 °F -0.0 °F 84% 30.52 in - East 5.8 mph - N/A   Unknown
9:48 AM 10.9 °F 4.7 °F 6.1 °F 81% 30.49 in - East 3.5 mph - N/A   Unknown
10:48 AM 17.1 °F 8.7 °F 10.9 °F 77% 30.47 in - ESE 5.8 mph - N/A   Unknown
11:48 AM 19.9 °F 10.1 °F 12.0 °F 71% 30.45 in - SSE 8.1 mph - N/A   Unknown
12:48 PM 19.9 °F 10.1 °F 12.9 °F 74% 30.44 in - SSE 8.1 mph - N/A   Unknown
1:48 PM 21.9 °F 11.0 °F 15.1 °F 75% 30.40 in - SE 10.4 mph - N/A   Unknown
2:48 PM 23.0 °F 12.4 °F 14.0 °F 68% 30.38 in - ESE 10.4 mph - N/A   Unknown
3:48 PM 21.9 °F 10.4 °F 16.0 °F 78% 30.38 in - ESE 11.5 mph - N/A   Unknown
4:48 PM 21.9 °F 10.4 °F 14.0 °F 72% 30.37 in - East 11.5 mph - N/A   Unknown
5:48 PM 19.9 °F 9.3 °F 14.0 °F 78% 30.36 in - East 9.2 mph - N/A   Unknown
6:48 PM 19.0 °F 9.0 °F 14.0 °F 81% 30.35 in - East 8.1 mph - N/A   Unknown
7:48 PM 18.0 °F 8.7 °F 12.9 °F 81% 30.34 in - East 6.9 mph - N/A   Unknown
8:48 PM 15.1 °F 5.2 °F 12.0 °F 88% 30.33 in - East 6.9 mph - N/A   Unknown
9:48 PM 15.1 °F 5.2 °F 10.9 °F 84% 30.30 in - East 6.9 mph - N/A   Unknown
10:48 PM 14.0 °F 2.0 °F 10.0 °F 84% 30.29 in - ENE 9.2 mph - N/A   Unknown
11:48 PM 14.0 °F 3.9 °F 10.0 °F 84% 30.27 in - East 6.9 mph - N/A   Unknown